User: anonymous   Login
Location: Unspecified
(0.0000°N, 0.0000°E)
Time: 09:58:00
(UTC+00:00)
Language:

NOAA 15 - Orbit

View from above orbital plane
View from above orbital plane
View from above satellite
View from above satellite

Ground track
Ground track

The orbit data is extracted from the following two-line orbital elements,

1 25338U 98030A   20224.93631028 +.00000043 +00000-0 +36471-4 0  9995
2 25338 098.7144 249.6970 0011583 100.8051 259.4433 14.25984668156887
Epoch (UTC): 11 August 2020 22:28:17
Eccentricity: 0.0011583
inclination: 98.7144°
perigee height: 797 km
apogee height: 813 km
right ascension of ascending node: 249.6970°
argument of perigee: 100.8051°
revolutions per day: 14.25984668
mean anomaly at epoch: 259.4433°
orbit number at epoch: 15688

The dashed part of the orbit path shows where the satellite is in the earth's shadow,  

DLR